| time (UTC) | temp F | wind direction | speed MPH | gust MPH | rain 1hr in | rain 24hr in | rain mn in | humidity % | barometer mb |
| 20260506001605 | 76 | 263 | 3.0 | 9.0 | 0.00 | 0.00 | 0.00 | 24 | 1012.2 |
| 20260506001330 | 77 | 265 | 2.0 | 9.0 | 0.00 | 0.00 | 0.00 | 23 | 1012.2 |
| 20260506001252 | 77 | 263 | 2.0 | 9.0 | 0.00 | 0.00 | 0.00 | 24 | 1012.2 |
| 20260506000559 | 77 | 271 | 2.0 | 7.0 | 0.00 | 0.00 | 0.00 | 23 | 1012.1 |
| 20260506000251 | 77 | 263 | 2.0 | 8.0 | 0.00 | 0.00 | 0.00 | 23 | 1012.1 |
| 20260506000100 | 77 | 261 | 2.0 | 8.0 | 0.00 | 0.00 | 0.00 | 23 | 1012.0 |
| 20260505235555 | 77 | 295 | 2.0 | 8.0 | 0.00 | 0.00 | 0.00 | 23 | 1012.1 |
| 20260505235251 | 77 | 273 | 2.0 | 8.0 | 0.00 | 0.00 | 0.00 | 22 | 1012.1 |
| 20260505235056 | 78 | 279 | 2.0 | 8.0 | 0.00 | 0.00 | 0.00 | 22 | 1012.1 |
| 20260505234555 | 78 | 271 | 2.0 | 8.0 | 0.00 | 0.00 | 0.00 | 22 | 1012.2 |
| 20260505234253 | 78 | 148 | 2.0 | 8.0 | 0.00 | 0.00 | 0.00 | 23 | 1012.2 |
| 20260505234055 | 78 | 276 | 2.0 | 8.0 | 0.00 | 0.00 | 0.00 | 23 | 1012.1 |
| 20260505233551 | 78 | 266 | 2.0 | 8.0 | 0.00 | 0.00 | 0.00 | 23 | 1012.2 |
| 20260505233252 | 78 | 278 | 2.0 | 8.0 | 0.00 | 0.00 | 0.00 | 23 | 1012.2 |
| 20260505233052 | 78 | 278 | 2.0 | 8.0 | 0.00 | 0.00 | 0.00 | 23 | 1012.2 |
| 20260505232551 | 78 | 273 | 2.0 | 6.0 | 0.00 | 0.00 | 0.00 | 22 | 1012.1 |
| 20260505232252 | 78 | 279 | 2.0 | 6.0 | 0.00 | 0.00 | 0.00 | 22 | 1012.1 |
| 20260505232050 | 78 | 269 | 2.0 | 10.0 | 0.00 | 0.00 | 0.00 | 22 | 1012.1 |
| 20260505231550 | 78 | 268 | 3.0 | 10.0 | 0.00 | 0.00 | 0.00 | 21 | 1012.2 |
| 20260505231252 | 78 | 275 | 2.0 | 10.0 | 0.00 | 0.00 | 0.00 | 21 | 1012.1 |
| 20260505231051 | 78 | 269 | 2.0 | 9.0 | 0.00 | 0.00 | 0.00 | 21 | 1012.1 |
| 20260505230548 | 78 | 121 | 2.0 | 7.0 | 0.00 | 0.00 | 0.00 | 22 | 1011.8 |
| 20260505230252 | 78 | 285 | 2.0 | 9.0 | 0.00 | 0.00 | 0.00 | 22 | 1011.8 |
| 20260505225547 | 78 | 111 | 3.0 | 9.0 | 0.00 | 0.00 | 0.00 | 22 | 1011.7 |
| 20260505225250 | 78 | 239 | 3.0 | 9.0 | 0.00 | 0.00 | 0.00 | 22 | 1011.8 |
| 20260505225041 | 78 | 238 | 3.0 | 9.0 | 0.00 | 0.00 | 0.00 | 22 | 1011.8 |
| 20260505224541 | 78 | 275 | 3.0 | 8.0 | 0.00 | 0.00 | 0.00 | 21 | 1011.9 |
| 20260505224251 | 79 | 275 | 3.0 | 8.0 | 0.00 | 0.00 | 0.00 | 21 | 1011.9 |
| 20260505224043 | 79 | 268 | 2.0 | 8.0 | 0.00 | 0.00 | 0.00 | 21 | 1011.9 |
| 20260505223542 | 79 | 269 | 2.0 | 8.0 | 0.00 | 0.00 | 0.00 | 21 | 1011.9 |
| 20260505223242 | 79 | 264 | 2.0 | 8.0 | 0.00 | 0.00 | 0.00 | 22 | 1011.9 |
| 20260505223042 | 79 | 254 | 2.0 | 8.0 | 0.00 | 0.00 | 0.00 | 22 | 1011.9 |
| 20260505222538 | 80 | 269 | 1.0 | 9.0 | 0.00 | 0.00 | 0.00 | 22 | 1012.0 |
| 20260505222242 | 79 | 106 | 2.0 | 9.0 | 0.00 | 0.00 | 0.00 | 24 | 1011.9 |
| 20260505222039 | 79 | 106 | 2.0 | 9.0 | 0.00 | 0.00 | 0.00 | 24 | 1011.9 |
| 20260505221539 | 78 | 93 | 3.0 | 9.0 | 0.00 | 0.00 | 0.00 | 24 | 1011.8 |
| 20260505221243 | 79 | 169 | 3.0 | 9.0 | 0.00 | 0.00 | 0.00 | 23 | 1011.7 |
| 20260505221037 | 79 | 102 | 3.0 | 9.0 | 0.00 | 0.00 | 0.00 | 23 | 1011.7 |
| 20260505220539 | 80 | 136 | 3.0 | 8.0 | 0.00 | 0.00 | 0.00 | 22 | 1011.7 |
| 20260505220241 | 79 | 244 | 3.0 | 8.0 | 0.00 | 0.00 | 0.00 | 22 | 1011.7 |
| 20260505220038 | 79 | 118 | 3.0 | 10.0 | 0.00 | 0.00 | 0.00 | 22 | 1011.7 |
| 20260505215539 | 80 | 186 | 2.0 | 10.0 | 0.00 | 0.00 | 0.00 | 22 | 1011.6 |
| 20260505215242 | 80 | 224 | 2.0 | 10.0 | 0.00 | 0.00 | 0.00 | 21 | 1011.7 |
| 20260505215037 | 80 | 245 | 2.0 | 8.0 | 0.00 | 0.00 | 0.00 | 21 | 1011.8 |
| 20260505214801 | 80 | 256 | 2.0 | 11.0 | 0.00 | 0.00 | 0.00 | 20 | 1011.9 |
| 20260505214715 | 80 | 254 | 2.0 | 11.0 | 0.00 | 0.00 | 0.00 | 20 | 1012.0 |
| 20260505214034 | 80 | 267 | 2.0 | 11.0 | 0.00 | 0.00 | 0.00 | 20 | 1012.0 |
| 20260505213533 | 80 | 219 | 2.0 | 9.0 | 0.00 | 0.00 | 0.00 | 21 | 1012.0 |
| 20260505213242 | 79 | 253 | 3.0 | 9.0 | 0.00 | 0.00 | 0.00 | 21 | 1012.0 |
| 20260505213033 | 79 | 134 | 3.0 | 9.0 | 0.00 | 0.00 | 0.00 | 21 | 1012.1 |
| 20260505212755 | 80 | 115 | 2.0 | 9.0 | 0.00 | 0.00 | 0.00 | 21 | 1012.0 |
| 20260505212242 | 80 | 94 | 2.0 | 8.0 | 0.00 | 0.00 | 0.00 | 20 | 1012.1 |
| 20260505212034 | 81 | 165 | 1.0 | 8.0 | 0.00 | 0.00 | 0.00 | 21 | 1012.0 |
| 20260505211243 | 80 | 259 | 2.0 | 8.0 | 0.00 | 0.00 | 0.00 | 21 | 1012.2 |
| 20260505211033 | 80 | 254 | 3.0 | 8.0 | 0.00 | 0.00 | 0.00 | 21 | 1012.2 |
| 20260505210533 | 80 | 280 | 3.0 | 10.0 | 0.00 | 0.00 | 0.00 | 21 | 1012.1 |
| 20260505210242 | 80 | 261 | 3.0 | 10.0 | 0.00 | 0.00 | 0.00 | 22 | 1012.0 |
| 20260505210035 | 80 | 155 | 3.0 | 10.0 | 0.00 | 0.00 | 0.00 | 21 | 1011.9 |
| 20260505205534 | 81 | 254 | 2.0 | 10.0 | 0.00 | 0.00 | 0.00 | 21 | 1012.2 |
| 20260505205255 | 80 | 277 | 3.0 | 10.0 | 0.00 | 0.00 | 0.00 | 21 | 1012.3 |
| 20260505205242 | 80 | 246 | 2.0 | 10.0 | 0.00 | 0.00 | 0.00 | 21 | 1012.3 |
| 20260505204533 | 82 | 242 | 2.0 | 8.0 | 0.00 | 0.00 | 0.00 | 21 | 1012.4 |
| 20260505204241 | 81 | 248 | 2.0 | 8.0 | 0.00 | 0.00 | 0.00 | 20 | 1012.5 |
| 20260505204033 | 81 | 258 | 2.0 | 7.0 | 0.00 | 0.00 | 0.00 | 20 | 1012.4 |
| 20260505203533 | 81 | 284 | 2.0 | 9.0 | 0.00 | 0.00 | 0.00 | 20 | 1012.5 |
| 20260505203253 | 80 | 281 | 2.0 | 9.0 | 0.00 | 0.00 | 0.00 | 20 | 1012.5 |
| 20260505203243 | 81 | 271 | 2.0 | 9.0 | 0.00 | 0.00 | 0.00 | 20 | 1012.5 |
| 20260505202533 | 81 | 267 | 2.0 | 6.0 | 0.00 | 0.00 | 0.00 | 18 | 1012.7 |
| 20260505202245 | 81 | 274 | 1.0 | 6.0 | 0.00 | 0.00 | 0.00 | 20 | 1012.7 |
| 20260505202034 | 80 | 271 | 2.0 | 9.0 | 0.00 | 0.00 | 0.00 | 21 | 1012.7 |
| 20260505201532 | 80 | 267 | 2.0 | 9.0 | 0.00 | 0.00 | 0.00 | 22 | 1012.7 |
| 20260505201240 | 79 | 126 | 3.0 | 9.0 | 0.00 | 0.00 | 0.00 | 22 | 1012.7 |
| 20260505201029 | 79 | 132 | 3.0 | 13.0 | 0.00 | 0.00 | 0.00 | 22 | 1012.7 |
| 20260505200529 | 80 | 155 | 2.0 | 13.0 | 0.00 | 0.00 | 0.00 | 21 | 1012.9 |
| 20260505200242 | 81 | 181 | 3.0 | 13.0 | 0.00 | 0.00 | 0.00 | 20 | 1012.9 |
| 20260505200030 | 80 | 273 | 3.0 | 13.0 | 0.00 | 0.00 | 0.00 | 21 | 1013.0 |
| 20260505195756 | 81 | 278 | 4.0 | 14.0 | 0.00 | 0.00 | 0.00 | 20 | 1013.1 |
| 20260505195241 | 81 | 266 | 3.0 | 14.0 | 0.00 | 0.00 | 0.00 | 20 | 1013.2 |
| 20260505195029 | 81 | 275 | 3.0 | 14.0 | 0.00 | 0.00 | 0.00 | 19 | 1013.2 |
| 20260505194718 | 79 | 90 | 2.0 | 9.0 | 0.00 | 0.00 | 0.00 | 22 | 1013.1 |
| 20260505194530 | 80 | 277 | 3.0 | 9.0 | 0.00 | 0.00 | 0.00 | 20 | 1013.2 |
| 20260505194030 | 79 | 99 | 2.0 | 7.0 | 0.00 | 0.00 | 0.00 | 21 | 1013.1 |
| 20260505193531 | 81 | 259 | 2.0 | 7.0 | 0.00 | 0.00 | 0.00 | 20 | 1013.3 |
| 20260505193242 | 81 | 273 | 2.0 | 6.0 | 0.00 | 0.00 | 0.00 | 22 | 1013.2 |
| 20260505193029 | 80 | 342 | 2.0 | 6.0 | 0.00 | 0.00 | 0.00 | 22 | 1013.3 |
| 20260505192529 | 80 | 265 | 2.0 | 9.0 | 0.00 | 0.00 | 0.00 | 21 | 1013.3 |
| 20260505192241 | 79 | 275 | 2.0 | 9.0 | 0.00 | 0.00 | 0.00 | 21 | 1013.3 |
| 20260505192030 | 79 | 126 | 2.0 | 9.0 | 0.00 | 0.00 | 0.00 | 22 | 1013.3 |
| 20260505191731 | 78 | 100 | 2.0 | 8.0 | 0.00 | 0.00 | 0.00 | 23 | 1013.2 |
| 20260505191528 | 78 | 261 | 2.0 | 8.0 | 0.00 | 0.00 | 0.00 | 23 | 1013.2 |
| 20260505191402 | 79 | 86 | 2.0 | 8.0 | 0.00 | 0.00 | 0.00 | 23 | 1013.3 |
| 20260505190526 | 79 | 233 | 3.0 | 8.0 | 0.00 | 0.00 | 0.00 | 23 | 1013.4 |
| 20260505190242 | 79 | 174 | 2.0 | 8.0 | 0.00 | 0.00 | 0.00 | 22 | 1013.5 |
| 20260505190024 | 79 | 273 | 2.0 | 8.0 | 0.00 | 0.00 | 0.00 | 22 | 1013.5 |
| 20260505185722 | 78 | 265 | 3.0 | 10.0 | 0.00 | 0.00 | 0.00 | 24 | 1013.5 |
| 20260505185528 | 79 | 265 | 2.0 | 8.0 | 0.00 | 0.00 | 0.00 | 24 | 1013.5 |
| 20260505185359 | 79 | 249 | 3.0 | 10.0 | 0.00 | 0.00 | 0.00 | 22 | 1013.5 |
| 20260505184525 | 79 | 273 | 2.0 | 10.0 | 0.00 | 0.00 | 0.00 | 21 | 1013.7 |
| 20260505184026 | 78 | 260 | 2.0 | 7.0 | 0.00 | 0.00 | 0.00 | 22 | 1013.6 |
| 20260505183721 | 78 | 259 | 2.0 | 8.0 | 0.00 | 0.00 | 0.00 | 22 | 1013.8 |
| 20260505183526 | 77 | 256 | 2.0 | 8.0 | 0.00 | 0.00 | 0.00 | 22 | 1013.7 |
| 20260505183402 | 78 | 113 | 2.0 | 8.0 | 0.00 | 0.00 | 0.00 | 22 | 1013.7 |
| 20260505182525 | 79 | 277 | 2.0 | 4.0 | 0.00 | 0.00 | 0.00 | 21 | 1013.9 |
| 20260505182243 | 79 | 263 | 2.0 | 7.0 | 0.00 | 0.00 | 0.00 | 21 | 1014.0 |
| 20260505182024 | 78 | 257 | 3.0 | 7.0 | 0.00 | 0.00 | 0.00 | 21 | 1014.1 |
| 20260505181523 | 78 | 289 | 2.0 | 7.0 | 0.00 | 0.00 | 0.00 | 21 | 1014.1 |
| 20260505181235 | 78 | 284 | 2.0 | 6.0 | 0.00 | 0.00 | 0.00 | 21 | 1014.2 |
| 20260505181024 | 78 | 134 | 2.0 | 10.0 | 0.00 | 0.00 | 0.00 | 20 | 1014.1 |
| 20260505180711 | 78 | 288 | 3.0 | 10.0 | 0.00 | 0.00 | 0.00 | 19 | 1014.5 |
| 20260505180525 | 78 | 284 | 3.0 | 10.0 | 0.00 | 0.00 | 0.00 | 19 | 1014.4 |
| 20260505180025 | 79 | 269 | 2.0 | 9.0 | 0.00 | 0.00 | 0.00 | 20 | 1014.5 |
| 20260505175522 | 80 | 254 | 2.0 | 8.0 | 0.00 | 0.00 | 0.00 | 20 | 1014.5 |
| 20260505175236 | 80 | 267 | 2.0 | 10.0 | 0.00 | 0.00 | 0.00 | 21 | 1014.5 |
| 20260505175023 | 79 | 275 | 3.0 | 10.0 | 0.00 | 0.00 | 0.00 | 21 | 1014.6 |
| 20260505174753 | 78 | 271 | 3.0 | 10.0 | 0.00 | 0.00 | 0.00 | 22 | 1014.6 |
| 20260505174712 | 77 | 281 | 3.0 | 13.0 | 0.00 | 0.00 | 0.00 | 22 | 1014.6 |
| 20260505174022 | 77 | 117 | 3.0 | 13.0 | 0.00 | 0.00 | 0.00 | 22 | 1014.6 |
| 20260505173520 | 78 | 249 | 3.0 | 13.0 | 0.00 | 0.00 | 0.00 | 23 | 1014.8 |
| 20260505173233 | 78 | 277 | 3.0 | 10.0 | 0.00 | 0.00 | 0.00 | 22 | 1014.8 |
| 20260505173025 | 78 | 250 | 3.0 | 9.0 | 0.00 | 0.00 | 0.00 | 21 | 1014.8 |
| 20260505172518 | 79 | 263 | 3.0 | 9.0 | 0.00 | 0.00 | 0.00 | 21 | 1014.7 |
| 20260505172231 | 79 | 265 | 3.0 | 9.0 | 0.00 | 0.00 | 0.00 | 20 | 1014.8 |
| 20260505172014 | 79 | 272 | 3.0 | 9.0 | 0.00 | 0.00 | 0.00 | 23 | 1014.8 |
| 20260505171713 | 78 | 355 | 3.0 | 13.0 | 0.00 | 0.00 | 0.00 | 22 | 1014.9 |
| 20260505171516 | 78 | 281 | 3.0 | 13.0 | 0.00 | 0.00 | 0.00 | 22 | 1014.9 |
| 20260505171015 | 78 | 286 | 2.0 | 13.0 | 0.00 | 0.00 | 0.00 | 23 | 1015.0 |
| 20260505170515 | 78 | 296 | 3.0 | 13.0 | 0.00 | 0.00 | 0.00 | 23 | 1014.9 |
| 20260505170237 | 79 | 270 | 2.0 | 13.0 | 0.00 | 0.00 | 0.00 | 22 | 1014.8 |
| 20260505170229 | 79 | 277 | 3.0 | 13.0 | 0.00 | 0.00 | 0.00 | 23 | 1014.7 |
| 20260505165512 | 78 | 262 | 1.0 | 7.0 | 0.00 | 0.00 | 0.00 | 24 | 1014.8 |
| 20260505165226 | 77 | 261 | 2.0 | 7.0 | 0.00 | 0.00 | 0.00 | 25 | 1014.7 |
| 20260505165012 | 77 | 188 | 2.0 | 8.0 | 0.00 | 0.00 | 0.00 | 25 | 1014.7 |
| 20260505164511 | 77 | 208 | 3.0 | 10.0 | 0.00 | 0.00 | 0.00 | 24 | 1014.7 |
| 20260505164226 | 78 | 137 | 4.0 | 10.0 | 0.00 | 0.00 | 0.00 | 23 | 1014.7 |
| 20260505164012 | 78 | 267 | 3.0 | 10.0 | 0.00 | 0.00 | 0.00 | 23 | 1014.8 |
| 20260505163736 | 78 | 233 | 3.0 | 10.0 | 0.00 | 0.00 | 0.00 | 23 | 1014.7 |
| 20260505163227 | 78 | 257 | 2.0 | 10.0 | 0.00 | 0.00 | 0.00 | 25 | 1014.7 |
| 20260505163009 | 77 | 293 | 2.0 | 10.0 | 0.00 | 0.00 | 0.00 | 26 | 1014.7 |
| 20260505162719 | 78 | 132 | 1.0 | 4.0 | 0.00 | 0.00 | 0.00 | 25 | 1014.7 |
| 20260505162226 | 78 | 281 | 2.0 | 6.0 | 0.00 | 0.00 | 0.00 | 25 | 1014.8 |
| 20260505162002 | 77 | 277 | 2.0 | 6.0 | 0.00 | 0.00 | 0.00 | 26 | 1014.9 |
| 20260505161502 | 76 | 265 | 3.0 | 9.0 | 0.00 | 0.00 | 0.00 | 27 | 1015.0 |
| 20260505161225 | 76 | 265 | 3.0 | 9.0 | 0.00 | 0.00 | 0.00 | 27 | 1015.0 |
| 20260505161002 | 76 | 279 | 3.0 | 9.0 | 0.00 | 0.00 | 0.00 | 26 | 1015.1 |
| 20260505160501 | 77 | 319 | 3.0 | 9.0 | 0.00 | 0.00 | 0.00 | 25 | 1015.1 |
| 20260505160222 | 77 | 251 | 2.0 | 9.0 | 0.00 | 0.00 | 0.00 | 25 | 1015.3 |
| 20260505153220 | 76 | 267 | 2.0 | 8.0 | 0.00 | 0.00 | 0.00 | 27 | 1015.0 |
| 20260505153210 | 76 | 261 | 2.0 | 8.0 | 0.00 | 0.00 | 0.00 | 27 | 1015.1 |
| 20260505152453 | 76 | 269 | 2.0 | 8.0 | 0.00 | 0.00 | 0.00 | 26 | 1015.1 |
| 20260505152210 | 76 | 263 | 2.0 | 8.0 | 0.00 | 0.00 | 0.00 | 25 | 1015.2 |
| 20260505151953 | 77 | 263 | 2.0 | 9.0 | 0.00 | 0.00 | 0.00 | 27 | 1015.1 |
| 20260505151452 | 76 | 269 | 2.0 | 9.0 | 0.00 | 0.00 | 0.00 | 27 | 1015.1 |
| 20260505151210 | 77 | 288 | 1.0 | 9.0 | 0.00 | 0.00 | 0.00 | 26 | 1015.1 |
| 20260505150454 | 76 | 271 | 0.0 | 2.0 | 0.00 | 0.00 | 0.00 | 29 | 1015.2 |
| 20260505150210 | 76 | 270 | 0.0 | 2.0 | 0.00 | 0.00 | 0.00 | 29 | 1015.2 |
| 20260505140208 | 72 | 268 | 0.0 | 1.0 | 0.00 | 0.00 | 0.00 | 37 | 1014.8 |
| 20260505130212 | 65 | 268 | 0.0 | 0.0 | 0.00 | 0.00 | 0.00 | 43 | 1014.4 |
| 20260505130207 | 64 | 268 | 0.0 | 0.0 | 0.00 | 0.00 | 0.00 | 44 | 1014.4 |
| 20260505124945 | 62 | 268 | 0.0 | 2.0 | 0.00 | 0.00 | 0.00 | 45 | 1014.2 |
| 20260505124444 | 62 | 268 | 0.0 | 2.0 | 0.00 | 0.00 | 0.00 | 44 | 1014.2 |
| 20260505124209 | 62 | 268 | 0.0 | 2.0 | 0.00 | 0.00 | 0.00 | 45 | 1014.2 |
| 20260505123945 | 62 | 268 | 0.0 | 2.0 | 0.00 | 0.00 | 0.00 | 45 | 1014.2 |
| 20260505123445 | 62 | 268 | 0.0 | 2.0 | 0.00 | 0.00 | 0.00 | 45 | 1014.1 |
| 20260505123209 | 62 | 268 | 0.0 | 2.0 | 0.00 | 0.00 | 0.00 | 45 | 1014.0 |
| 20260505122945 | 62 | 268 | 0.0 | 2.0 | 0.00 | 0.00 | 0.00 | 45 | 1014.0 |
| 20260505122445 | 62 | 268 | 0.0 | 3.0 | 0.00 | 0.00 | 0.00 | 45 | 1013.9 |
| 20260505122212 | 62 | 268 | 0.0 | 3.0 | 0.00 | 0.00 | 0.00 | 45 | 1013.9 |
| 20260505122205 | 62 | 268 | 1.0 | 3.0 | 0.00 | 0.00 | 0.00 | 45 | 1013.9 |
| 20260505121445 | 62 | 268 | 1.0 | 4.0 | 0.00 | 0.00 | 0.00 | 45 | 1014.1 |
| 20260505121211 | 61 | 268 | 1.0 | 4.0 | 0.00 | 0.00 | 0.00 | 45 | 1014.1 |
| 20260505121204 | 61 | 268 | 1.0 | 4.0 | 0.00 | 0.00 | 0.00 | 45 | 1014.2 |
| 20260505120445 | 61 | 268 | 0.0 | 2.0 | 0.00 | 0.00 | 0.00 | 46 | 1014.0 |
| 20260505120205 | 61 | 268 | 0.0 | 2.0 | 0.00 | 0.00 | 0.00 | 46 | 1014.1 |
| 20260505115942 | 60 | 268 | 1.0 | 3.0 | 0.00 | 0.00 | 0.00 | 46 | 1014.1 |
| 20260505115440 | 60 | 268 | 0.0 | 4.0 | 0.00 | 0.00 | 0.00 | 46 | 1014.1 |
| 20260505115205 | 60 | 269 | 0.0 | 4.0 | 0.00 | 0.00 | 0.00 | 46 | 1013.9 |
| 20260505114942 | 60 | 269 | 1.0 | 4.0 | 0.00 | 0.00 | 0.00 | 46 | 1013.9 |
| 20260505114442 | 60 | 269 | 1.0 | 4.0 | 0.00 | 0.00 | 0.00 | 46 | 1013.8 |
| 20260505114204 | 60 | 269 | 1.0 | 4.0 | 0.00 | 0.00 | 0.00 | 46 | 1013.7 |
| 20260505113939 | 60 | 269 | 2.0 | 6.0 | 0.00 | 0.00 | 0.00 | 46 | 1013.7 |
| 20260505113440 | 60 | 271 | 1.0 | 6.0 | 0.00 | 0.00 | 0.00 | 46 | 1013.6 |
| 20260505113204 | 60 | 271 | 1.0 | 6.0 | 0.00 | 0.00 | 0.00 | 46 | 1013.6 |
| 20260505112942 | 60 | 271 | 1.0 | 7.0 | 0.00 | 0.00 | 0.00 | 46 | 1013.6 |
| 20260505112441 | 60 | 271 | 2.0 | 7.0 | 0.00 | 0.00 | 0.00 | 46 | 1013.5 |
| 20260505112205 | 60 | 268 | 2.0 | 7.0 | 0.00 | 0.00 | 0.00 | 46 | 1013.5 |
| 20260505111942 | 60 | 272 | 2.0 | 7.0 | 0.00 | 0.00 | 0.00 | 46 | 1013.4 |
| 20260505111440 | 60 | 273 | 2.0 | 7.0 | 0.00 | 0.00 | 0.00 | 46 | 1013.4 |
| 20260505111204 | 60 | 269 | 2.0 | 7.0 | 0.00 | 0.00 | 0.00 | 46 | 1013.3 |
| 20260505110940 | 60 | 268 | 2.0 | 6.0 | 0.00 | 0.00 | 0.00 | 46 | 1013.4 |
| 20260505110703 | 60 | 272 | 2.0 | 6.0 | 0.00 | 0.00 | 0.00 | 46 | 1013.3 |
| 20260505110650 | 60 | 266 | 2.0 | 6.0 | 0.00 | 0.00 | 0.00 | 46 | 1013.2 |
| 20260505102205 | 60 | 278 | 3.0 | 8.0 | 0.00 | 0.00 | 0.00 | 45 | 1013.2 |
| 20260505101936 | 60 | 267 | 3.0 | 7.0 | 0.00 | 0.00 | 0.00 | 45 | 1013.2 |
| 20260505101436 | 60 | 271 | 3.0 | 9.0 | 0.00 | 0.00 | 0.00 | 44 | 1013.2 |
| 20260505101202 | 60 | 263 | 3.0 | 9.0 | 0.00 | 0.00 | 0.00 | 44 | 1013.3 |
| 20260505100935 | 61 | 276 | 2.0 | 9.0 | 0.00 | 0.00 | 0.00 | 44 | 1013.3 |
| 20260505100434 | 61 | 227 | 2.0 | 7.0 | 0.00 | 0.00 | 0.00 | 44 | 1013.4 |
| 20260505100202 | 61 | 266 | 2.0 | 9.0 | 0.00 | 0.00 | 0.00 | 44 | 1013.4 |
| 20260505095935 | 61 | 275 | 3.0 | 9.0 | 0.00 | 0.00 | 0.00 | 44 | 1013.4 |
| 20260505095434 | 61 | 261 | 3.0 | 9.0 | 0.00 | 0.00 | 0.00 | 43 | 1013.5 |
| 20260505095201 | 61 | 275 | 3.0 | 9.0 | 0.00 | 0.00 | 0.00 | 43 | 1013.4 |
| 20260505094933 | 61 | 261 | 3.0 | 9.0 | 0.00 | 0.00 | 0.00 | 43 | 1013.4 |
| 20260505094436 | 61 | 265 | 3.0 | 9.0 | 0.00 | 0.00 | 0.00 | 43 | 1013.3 |
| 20260505094201 | 61 | 276 | 3.0 | 9.0 | 0.00 | 0.00 | 0.00 | 43 | 1013.2 |
| 20260505093930 | 62 | 279 | 2.0 | 9.0 | 0.00 | 0.00 | 0.00 | 42 | 1013.2 |
| 20260505093428 | 62 | 275 | 3.0 | 9.0 | 0.00 | 0.00 | 0.00 | 42 | 1013.2 |
| 20260505093200 | 62 | 265 | 3.0 | 8.0 | 0.00 | 0.00 | 0.00 | 41 | 1013.2 |
| 20260505092927 | 62 | 271 | 3.0 | 8.0 | 0.00 | 0.00 | 0.00 | 41 | 1013.2 |
| 20260505092423 | 62 | 265 | 2.0 | 8.0 | 0.00 | 0.00 | 0.00 | 41 | 1013.2 |
| 20260505092201 | 62 | 273 | 2.0 | 9.0 | 0.00 | 0.00 | 0.00 | 41 | 1013.3 |
| 20260505091922 | 62 | 275 | 2.0 | 9.0 | 0.00 | 0.00 | 0.00 | 41 | 1013.3 |
| 20260505091645 | 62 | 267 | 2.0 | 9.0 | 0.00 | 0.00 | 0.00 | 40 | 1013.4 |
| 20260505091200 | 62 | 276 | 3.0 | 9.0 | 0.00 | 0.00 | 0.00 | 40 | 1013.4 |
| 20260505090919 | 62 | 259 | 3.0 | 9.0 | 0.00 | 0.00 | 0.00 | 39 | 1013.5 |
| 20260505090655 | 63 | 276 | 3.0 | 9.0 | 0.00 | 0.00 | 0.00 | 39 | 1013.5 |
| 20260505090203 | 63 | 277 | 2.0 | 8.0 | 0.00 | 0.00 | 0.00 | 39 | 1013.5 |
| 20260505085918 | 63 | 267 | 3.0 | 8.0 | 0.00 | 0.00 | 0.00 | 38 | 1013.5 |
| 20260505085418 | 63 | 278 | 2.0 | 8.0 | 0.00 | 0.00 | 0.00 | 38 | 1013.5 |
| 20260505085158 | 63 | 263 | 2.0 | 7.0 | 0.00 | 0.00 | 0.00 | 37 | 1013.6 |
| 20260505084918 | 63 | 274 | 2.0 | 8.0 | 0.00 | 0.00 | 0.00 | 37 | 1013.5 |
| 20260505084631 | 63 | 268 | 1.0 | 8.0 | 0.00 | 0.00 | 0.00 | 37 | 1013.6 |
| 20260505084158 | 63 | 270 | 2.0 | 8.0 | 0.00 | 0.00 | 0.00 | 36 | 1013.6 |
| 20260505083911 | 63 | 271 | 1.0 | 9.0 | 0.00 | 0.00 | 0.00 | 36 | 1013.7 |
| 20260505083411 | 64 | 267 | 2.0 | 9.0 | 0.00 | 0.00 | 0.00 | 35 | 1013.6 |
| 20260505083134 | 64 | 271 | 2.0 | 9.0 | 0.00 | 0.00 | 0.00 | 35 | 1013.5 |
| 20260505082409 | 64 | 271 | 2.0 | 9.0 | 0.00 | 0.00 | 0.00 | 34 | 1013.5 |
| 20260505082157 | 64 | 265 | 2.0 | 9.0 | 0.00 | 0.00 | 0.00 | 34 | 1013.5 |
| 20260505081909 | 64 | 273 | 2.0 | 6.0 | 0.00 | 0.00 | 0.00 | 34 | 1013.6 |
| 20260505081407 | 64 | 273 | 2.0 | 6.0 | 0.00 | 0.00 | 0.00 | 33 | 1013.5 |
| 20260505081155 | 64 | 279 | 2.0 | 6.0 | 0.00 | 0.00 | 0.00 | 33 | 1013.5 |
| 20260505080905 | 64 | 275 | 2.0 | 8.0 | 0.00 | 0.00 | 0.00 | 33 | 1013.6 |
| 20260505080405 | 64 | 259 | 2.0 | 8.0 | 0.00 | 0.00 | 0.00 | 32 | 1013.6 |
| 20260505080152 | 65 | 267 | 2.0 | 8.0 | 0.00 | 0.00 | 0.00 | 32 | 1013.6 |
| 20260505075904 | 65 | 270 | 2.0 | 6.0 | 0.00 | 0.00 | 0.00 | 31 | 1013.6 |
| 20260505075404 | 65 | 269 | 3.0 | 13.0 | 0.00 | 0.00 | 0.00 | 31 | 1013.5 |
| 20260505075153 | 65 | 273 | 3.0 | 13.0 | 0.00 | 0.00 | 0.00 | 30 | 1013.4 |
| 20260505074905 | 66 | 267 | 3.0 | 13.0 | 0.00 | 0.00 | 0.00 | 30 | 1013.4 |
| 20260505074401 | 66 | 269 | 2.0 | 9.0 | 0.00 | 0.00 | 0.00 | 30 | 1013.3 |
| 20260505074148 | 66 | 270 | 2.0 | 9.0 | 0.00 | 0.00 | 0.00 | 30 | 1013.4 |
| 20260505073901 | 66 | 271 | 2.0 | 9.0 | 0.00 | 0.00 | 0.00 | 30 | 1013.4 |
| 20260505073402 | 66 | 269 | 2.0 | 8.0 | 0.00 | 0.00 | 0.00 | 30 | 1013.3 |
| 20260505073149 | 66 | 273 | 2.0 | 8.0 | 0.00 | 0.00 | 0.00 | 29 | 1013.4 |
| 20260505072900 | 66 | 267 | 2.0 | 8.0 | 0.00 | 0.00 | 0.00 | 29 | 1013.4 |
| 20260505072623 | 66 | 265 | 3.0 | 9.0 | 0.00 | 0.00 | 0.00 | 29 | 1013.4 |
| 20260505072401 | 66 | 271 | 2.0 | 9.0 | 0.00 | 0.00 | 0.00 | 29 | 1013.4 |
| 20260505071859 | 66 | 266 | 3.0 | 9.0 | 0.00 | 0.00 | 0.00 | 28 | 1013.4 |
| 20260505071400 | 67 | 268 | 3.0 | 9.0 | 0.00 | 0.00 | 0.00 | 28 | 1013.4 |
| 20260505071146 | 67 | 273 | 3.0 | 9.0 | 0.00 | 0.00 | 0.00 | 28 | 1013.4 |
| 20260505071120 | 67 | 254 | 3.0 | 9.0 | 0.00 | 0.00 | 0.00 | 29 | 1013.4 |
| 20260505070355 | 67 | 266 | 3.0 | 9.0 | 0.00 | 0.00 | 0.00 | 28 | 1013.4 |
| 20260505070144 | 67 | 276 | 2.0 | 9.0 | 0.00 | 0.00 | 0.00 | 28 | 1013.4 |
| 20260505065857 | 67 | 272 | 2.0 | 8.0 | 0.00 | 0.00 | 0.00 | 28 | 1013.4 |
| 20260505065356 | 67 | 256 | 2.0 | 7.0 | 0.00 | 0.00 | 0.00 | 28 | 1013.4 |
| 20260505065144 | 67 | 254 | 2.0 | 7.0 | 0.00 | 0.00 | 0.00 | 28 | 1013.4 |
| 20260505064852 | 67 | 269 | 2.0 | 6.0 | 0.00 | 0.00 | 0.00 | 28 | 1013.4 |
| 20260505064351 | 67 | 279 | 2.0 | 9.0 | 0.00 | 0.00 | 0.00 | 29 | 1013.4 |
| 20260505064144 | 67 | 274 | 2.0 | 9.0 | 0.00 | 0.00 | 0.00 | 29 | 1013.4 |
| 20260505063851 | 67 | 273 | 2.0 | 9.0 | 0.00 | 0.00 | 0.00 | 29 | 1013.4 |
| 20260505063351 | 67 | 271 | 2.0 | 9.0 | 0.00 | 0.00 | 0.00 | 29 | 1013.5 |
| 20260505063143 | 67 | 270 | 2.0 | 9.0 | 0.00 | 0.00 | 0.00 | 30 | 1013.5 |
| 20260505062852 | 67 | 269 | 2.0 | 9.0 | 0.00 | 0.00 | 0.00 | 30 | 1013.6 |
| 20260505062351 | 67 | 275 | 2.0 | 9.0 | 0.00 | 0.00 | 0.00 | 30 | 1013.6 |
| 20260505062144 | 67 | 276 | 2.0 | 9.0 | 0.00 | 0.00 | 0.00 | 30 | 1013.5 |
| 20260505061852 | 67 | 279 | 2.0 | 9.0 | 0.00 | 0.00 | 0.00 | 30 | 1013.5 |
| 20260505061617 | 67 | 269 | 2.0 | 10.0 | 0.00 | 0.00 | 0.00 | 31 | 1013.6 |
| 20260505061145 | 67 | 273 | 2.0 | 10.0 | 0.00 | 0.00 | 0.00 | 30 | 1013.6 |
| 20260505060852 | 67 | 271 | 1.0 | 10.0 | 0.00 | 0.00 | 0.00 | 31 | 1013.6 |
| 20260505060351 | 66 | 211 | 1.0 | 5.0 | 0.00 | 0.00 | 0.00 | 32 | 1013.6 |
| 20260505060219 | 66 | 211 | 1.0 | 5.0 | 0.00 | 0.00 | 0.00 | 32 | 1013.5 |
| 20260505055351 | 67 | 204 | 1.0 | 4.0 | 0.00 | 0.00 | 0.00 | 31 | 1013.6 |
| 20260505055143 | 67 | 204 | 1.0 | 2.0 | 0.00 | 0.00 | 0.00 | 31 | 1013.6 |
| 20260505054852 | 67 | 203 | 0.0 | 2.0 | 0.00 | 0.00 | 0.00 | 31 | 1013.6 |
| 20260505054353 | 67 | 203 | 1.0 | 4.0 | 0.00 | 0.00 | 0.00 | 32 | 1013.6 |
| 20260505054143 | 67 | 203 | 0.0 | 4.0 | 0.00 | 0.00 | 0.00 | 31 | 1013.7 |
| 20260505054108 | 67 | 203 | 1.0 | 4.0 | 0.00 | 0.00 | 0.00 | 31 | 1013.6 |
| 20260505053353 | 67 | 203 | 1.0 | 4.0 | 0.00 | 0.00 | 0.00 | 31 | 1013.7 |
| 20260505053144 | 67 | 203 | 1.0 | 4.0 | 0.00 | 0.00 | 0.00 | 31 | 1013.7 |
| 20260505052852 | 67 | 203 | 1.0 | 4.0 | 0.00 | 0.00 | 0.00 | 30 | 1013.7 |
| 20260505052351 | 67 | 203 | 1.0 | 3.0 | 0.00 | 0.00 | 0.00 | 31 | 1013.7 |
| 20260505052143 | 67 | 203 | 1.0 | 3.0 | 0.00 | 0.00 | 0.00 | 30 | 1013.7 |
| 20260505051852 | 67 | 203 | 1.0 | 3.0 | 0.00 | 0.00 | 0.00 | 31 | 1013.7 |
| 20260505051353 | 67 | 203 | 1.0 | 4.0 | 0.00 | 0.00 | 0.00 | 31 | 1013.7 |
| 20260505051145 | 67 | 203 | 1.0 | 4.0 | 0.00 | 0.00 | 0.00 | 31 | 1013.7 |
| 20260505050852 | 67 | 203 | 1.0 | 4.0 | 0.00 | 0.00 | 0.00 | 30 | 1013.7 |
| 20260505050630 | 67 | 200 | 2.0 | 4.0 | 0.00 | 0.00 | 0.00 | 31 | 1013.6 |
| 20260505050353 | 67 | 200 | 2.0 | 4.0 | 0.00 | 0.00 | 0.00 | 30 | 1013.6 |
| 20260505041347 | 68 | 196 | 1.0 | 3.0 | 0.00 | 0.00 | 0.00 | 30 | 1013.7 |
| 20260505041143 | 68 | 196 | 1.0 | 3.0 | 0.00 | 0.00 | 0.00 | 30 | 1013.6 |
| 20260505041112 | 68 | 196 | 1.0 | 4.0 | 0.00 | 0.00 | 0.00 | 31 | 1013.7 |
| 20260505040350 | 68 | 196 | 1.0 | 4.0 | 0.00 | 0.00 | 0.00 | 30 | 1013.6 |
| 20260505040145 | 68 | 196 | 2.0 | 4.0 | 0.00 | 0.00 | 0.00 | 31 | 1013.6 |
| 20260505035846 | 68 | 195 | 1.0 | 3.0 | 0.00 | 0.00 | 0.00 | 30 | 1013.6 |
| 20260505035346 | 68 | 194 | 1.0 | 3.0 | 0.00 | 0.00 | 0.00 | 31 | 1013.7 |
| 20260505035142 | 68 | 194 | 1.0 | 3.0 | 0.00 | 0.00 | 0.00 | 31 | 1013.7 |
| 20260505034843 | 68 | 194 | 1.0 | 3.0 | 0.00 | 0.00 | 0.00 | 31 | 1013.8 |
| 20260505034604 | 68 | 194 | 1.0 | 3.0 | 0.00 | 0.00 | 0.00 | 31 | 1013.8 |
| 20260505034140 | 69 | 194 | 1.0 | 3.0 | 0.00 | 0.00 | 0.00 | 30 | 1013.8 |
| 20260505033845 | 69 | 194 | 0.0 | 3.0 | 0.00 | 0.00 | 0.00 | 30 | 1013.8 |
| 20260505033345 | 69 | 194 | 0.0 | 3.0 | 0.00 | 0.00 | 0.00 | 30 | 1013.8 |
| 20260505033141 | 69 | 193 | 1.0 | 3.0 | 0.00 | 0.00 | 0.00 | 29 | 1013.8 |
| 20260505032840 | 69 | 194 | 1.0 | 5.0 | 0.00 | 0.00 | 0.00 | 30 | 1013.8 |
| 20260505032340 | 69 | 194 | 1.0 | 5.0 | 0.00 | 0.00 | 0.00 | 30 | 1013.8 |
| 20260505032139 | 69 | 194 | 1.0 | 4.0 | 0.00 | 0.00 | 0.00 | 30 | 1013.8 |
| 20260505031843 | 69 | 171 | 1.0 | 5.0 | 0.00 | 0.00 | 0.00 | 31 | 1013.8 |
| 20260505031601 | 69 | 170 | 1.0 | 5.0 | 0.00 | 0.00 | 0.00 | 30 | 1013.8 |
| 20260505031137 | 69 | 170 | 1.0 | 5.0 | 0.00 | 0.00 | 0.00 | 30 | 1013.8 |
| 20260505030842 | 69 | 169 | 2.0 | 5.0 | 0.00 | 0.00 | 0.00 | 31 | 1013.8 |
| 20260505030340 | 69 | 168 | 2.0 | 5.0 | 0.00 | 0.00 | 0.00 | 31 | 1013.8 |
| 20260505030137 | 69 | 168 | 2.0 | 5.0 | 0.00 | 0.00 | 0.00 | 31 | 1013.8 |
| 20260505025840 | 69 | 166 | 1.0 | 5.0 | 0.00 | 0.00 | 0.00 | 30 | 1013.8 |
| 20260505025341 | 70 | 163 | 1.0 | 5.0 | 0.00 | 0.00 | 0.00 | 29 | 1013.7 |
| 20260505025136 | 70 | 163 | 1.0 | 5.0 | 0.00 | 0.00 | 0.00 | 29 | 1013.7 |
| 20260505024842 | 70 | 163 | 2.0 | 5.0 | 0.00 | 0.00 | 0.00 | 30 | 1013.8 |
| 20260505024338 | 71 | 264 | 1.0 | 4.0 | 0.00 | 0.00 | 0.00 | 27 | 1013.9 |
| 20260505023837 | 71 | 264 | 1.0 | 7.0 | 0.00 | 0.00 | 0.00 | 27 | 1013.8 |
| 20260505023619 | 71 | 263 | 1.0 | 7.0 | 0.00 | 0.00 | 0.00 | 27 | 1013.7 |
| 20260505023337 | 71 | 263 | 1.0 | 7.0 | 0.00 | 0.00 | 0.00 | 27 | 1013.7 |
| 20260505023056 | 71 | 263 | 1.0 | 3.0 | 0.00 | 0.00 | 0.00 | 27 | 1013.7 |
| 20260505022558 | 72 | 263 | 0.0 | 3.0 | 0.00 | 0.00 | 0.00 | 26 | 1013.7 |
| 20260505022136 | 72 | 262 | 0.0 | 3.0 | 0.00 | 0.00 | 0.00 | 27 | 1013.7 |
| 20260505021836 | 72 | 262 | 1.0 | 3.0 | 0.00 | 0.00 | 0.00 | 26 | 1013.7 |
| 20260505021337 | 72 | 262 | 1.0 | 7.0 | 0.00 | 0.00 | 0.00 | 27 | 1013.7 |
| 20260505021137 | 72 | 262 | 2.0 | 7.0 | 0.00 | 0.00 | 0.00 | 26 | 1013.7 |
| 20260505020839 | 72 | 262 | 1.0 | 7.0 | 0.00 | 0.00 | 0.00 | 26 | 1013.6 |
| 20260505020337 | 72 | 262 | 1.0 | 6.0 | 0.00 | 0.00 | 0.00 | 26 | 1013.6 |
| 20260505020136 | 72 | 259 | 1.0 | 3.0 | 0.00 | 0.00 | 0.00 | 26 | 1013.6 |
| 20260505020051 | 72 | 259 | 0.0 | 3.0 | 0.00 | 0.00 | 0.00 | 26 | 1013.6 |
| 20260505015603 | 73 | 259 | 0.0 | 3.0 | 0.00 | 0.00 | 0.00 | 26 | 1013.5 |
| 20260505015138 | 73 | 259 | 0.0 | 3.0 | 0.00 | 0.00 | 0.00 | 25 | 1013.5 |
| 20260505014832 | 73 | 259 | 0.0 | 3.0 | 0.00 | 0.00 | 0.00 | 25 | 1013.4 |
| 20260505014331 | 73 | 259 | 0.0 | 3.0 | 0.00 | 0.00 | 0.00 | 24 | 1013.5 |
| 20260505014136 | 73 | 259 | 0.0 | 2.0 | 0.00 | 0.00 | 0.00 | 24 | 1013.6 |
| 20260505013832 | 73 | 259 | 0.0 | 2.0 | 0.00 | 0.00 | 0.00 | 25 | 1013.5 |
| 20260505013623 | 73 | 259 | 0.0 | 3.0 | 0.00 | 0.00 | 0.00 | 25 | 1013.4 |
| 20260505013333 | 73 | 259 | 0.0 | 3.0 | 0.00 | 0.00 | 0.00 | 25 | 1013.5 |
| 20260505012833 | 73 | 259 | 0.0 | 3.0 | 0.00 | 0.00 | 0.00 | 25 | 1013.4 |
| 20260505012332 | 73 | 259 | 0.0 | 3.0 | 0.00 | 0.00 | 0.00 | 25 | 1013.4 |
| 20260505012137 | 73 | 259 | 1.0 | 3.0 | 0.00 | 0.00 | 0.00 | 25 | 1013.4 |
| 20260505011833 | 73 | 259 | 1.0 | 3.0 | 0.00 | 0.00 | 0.00 | 25 | 1013.4 |
| 20260505011550 | 73 | 259 | 0.0 | 3.0 | 0.00 | 0.00 | 0.00 | 25 | 1013.3 |
| 20260505011137 | 73 | 259 | 0.0 | 3.0 | 0.00 | 0.00 | 0.00 | 25 | 1013.3 |
| 20260505010827 | 73 | 257 | 0.0 | 3.0 | 0.00 | 0.00 | 0.00 | 25 | 1013.4 |
| 20260505010609 | 73 | 257 | 1.0 | 3.0 | 0.00 | 0.00 | 0.00 | 25 | 1013.3 |
| 20260505010550 | 73 | 257 | 0.0 | 3.0 | 0.00 | 0.00 | 0.00 | 25 | 1013.3 |
| 20260505005825 | 73 | 258 | 0.0 | 2.0 | 0.00 | 0.00 | 0.00 | 25 | 1013.2 |
| 20260505005327 | 73 | 258 | 0.0 | 2.0 | 0.00 | 0.00 | 0.00 | 24 | 1013.2 |
| 20260505005133 | 73 | 258 | 0.0 | 3.0 | 0.00 | 0.00 | 0.00 | 24 | 1013.1 |
| 20260505005049 | 73 | 258 | 0.0 | 4.0 | 0.00 | 0.00 | 0.00 | 24 | 1013.1 |
| 20260505004322 | 74 | 258 | 1.0 | 4.0 | 0.00 | 0.00 | 0.00 | 24 | 1013.0 |
| 20260505004130 | 74 | 259 | 1.0 | 4.0 | 0.00 | 0.00 | 0.00 | 24 | 1013.0 |
| 20260505004050 | 74 | 259 | 1.0 | 3.0 | 0.00 | 0.00 | 0.00 | 23 | 1013.0 |
| 20260505003323 | 74 | 259 | 0.0 | 3.0 | 0.00 | 0.00 | 0.00 | 22 | 1013.0 |
| 20260505003131 | 74 | 259 | 0.0 | 3.0 | 0.00 | 0.00 | 0.00 | 22 | 1013.0 |
| 20260505002823 | 75 | 259 | 0.0 | 3.0 | 0.00 | 0.00 | 0.00 | 21 | 1013.0 |
| 20260505002321 | 75 | 259 | 0.0 | 3.0 | 0.00 | 0.00 | 0.00 | 20 | 1013.0 |
| 20260505002129 | 75 | 259 | 1.0 | 3.0 | 0.00 | 0.00 | 0.00 | 21 | 1013.0 |
| 20260505001818 | 75 | 259 | 0.0 | 3.0 | 0.00 | 0.00 | 0.00 | 20 | 1013.0 |